Satellite-Ground Cal/Val Site Overpasses Predictions

Prediction of Satellite NPP Overpassing Cal/Val Site: Antarctic Dome C

Ground Cal/Val Site Location: Latitude: -75.10, Longitude: 123.35; Satellite-Ground Site NADIR distance within 100 km.

Table of predicted overpasses for the next 14.0 days since TLE Epoch: 10/16/2013
Interval Starting Time Ending Time Minimum Distance Time Minimum Distance (km)
1 10/17/2013 14:56:04 10/17/2013 14:56:32 10/17/2013 14:56:18 26.19
2 10/18/2013 14:37:22 10/18/2013 14:37:38 10/18/2013 14:37:30 80.86
3 10/19/2013 07:38:55 10/19/2013 07:39:22 10/19/2013 07:39:08 33.37
4 10/20/2013 07:20:10 10/20/2013 07:20:29 10/20/2013 07:20:20 76.74
5 10/22/2013 15:02:26 10/22/2013 15:02:49 10/22/2013 15:02:38 63.15
6 10/23/2013 14:43:35 10/23/2013 14:44:01 10/23/2013 14:43:48 46.13
7 10/24/2013 07:45:17 10/24/2013 07:45:38 10/24/2013 07:45:27 68.29
8 10/25/2013 07:26:25 10/25/2013 07:26:52 10/25/2013 07:26:39 39.60
9 10/28/2013 14:49:52 10/28/2013 14:50:21 10/28/2013 14:50:06 11.16


<
